Showing default

ZHUHAI-1 03B, 44536

Orbit data source: Space-Track

ZHUHAI-1 03B, 44536 is a payload satellite owned by Zhuhai Orbita (CN) in SSO that was launched on Thu, 19 Sep 2019 UTC via a CHANG ZHENG 11 launch vehicle from the Jiuquan Satellite Launch Center, China (JSC). Payload-class satellites include a variety of spacecraft equipped with specific instruments for various scientific and technological missions. These include communications satellites like Starlink; space stations such as the ISS; scientific satellites like the Hubble; Earth observation satellites from companies like Planet Labs, Umbra, and HawkEye 360; GPS; miniature CubeSats for education and research; and military/defense satellites.

Loading next visibility...
Identifier
44536, 2019-060C
Orbit
SSO
Country
Flag of CNCN / PRC
Related business
Manufacturer
Harbin
Mission
Operational Commercial Imaging
Bus & Motor
OHS-1, Unknown motor
Mass
69 kg wet, ~69 kg dry
Launch date (UTC)
2019-09-19 (6 years ago)
Launch vehicle
CHANG ZHENG 11
Launch site
Jiuquan Satellite Launch Center, China (JSC)
Object type
Payload
Rocket body
Debris
Shape & HBR
Box, Unknown HBR
Radar Cross Section
0.280 m², Medium (>0.1 m² and < 1m²)

Expand to show TLE details & history
Last TLE update: 13 hours ago

TLE from 13 hours ago
0 ZHUHAI-1 03B
1 44536U 19060C   25258.66566123  .00022070  00000-0  63020-3 0  9990
2 44536  97.5297  40.9116 0012063 230.6908 129.3266 15.35964648333935
Epoch: 2025-09-15T15:58Z
TLE epoch observation values (Epoch: 2025-09-15T15:58:33.13Z)
Latitude
-0.00007°
Longitude
166.40652°
Altitude
466.398 km
Speed
7.63 km/s
True Right ascension
02h 43m 38s
True Declination
0° 00' 00"
Sunlit
Object was in full shadow at epoch
Visualization orbit readout
Latitude
Unknown
Longitude
Unknown
Altitude
Unknown
Speed
Unknown
Apparent Right ascension
Unknown
Apparent Declination
Unknown
Sunlit
N/A
Visualization observer readout
Local Sidereal Time
21:52:33
Azimuth
Unknown
Elevation
Unknown
Doppler factor
Unknown
Orbital elements
Apogee altitude
463.249 km
Perigee altitude
446.764 km
Semi-major axis
6,833.144 km
Eccentricity
0.00121
Inclination
97.5297°
RAAN
40.9116°
Arg. of periapsis
230.6908°
True anomaly
129.43343°
Mean anomaly
129.3266°
Eccentric anomaly
129.38002°
Mean motion
3.84249 °/min
Orbital period
93.69 mins
BSTAR
0.0006302
Loading maneuver chart data...
Computing Atmospheric mass density...
Loading historical data...
Loading historical data...
Loading historical data...
Loading historical data...
Loading historical data...
Loading historical data...
Loading historical data...

Documentation

Showing up to 5 results
|